EN

Hourly Weather Alytus

Today, 16 January, Saturday

Time Temperature Precipitation Wind Pressure Humidity
00:00 -18°C° 0 mm 3 mps 754 mmHg 94%
01:00 -18°C° 0 mm 3 mps 754 mmHg 94%
02:00 -18°C° 0 mm 3 mps 754 mmHg 94%
03:00 -18°C° 0 mm 3 mps 754 mmHg 94%
04:00 -18°C° 0 mm 3 mps 753 mmHg 95%
05:00 -18°C° 0 mm 3 mps 753 mmHg 95%
06:00 -17°C° 0 mm 2 mps 753 mmHg 95%
07:00 -17°C° 0 mm 2 mps 753 mmHg 95%
08:00 -16°C° 0 mm 1 mps 753 mmHg 95%
09:00 -15°C° 0 mm 1 mps 752 mmHg 93%
10:00 -14°C° 0 mm 1 mps 752 mmHg 91%
11:00 -13°C° 0 mm 0 mps 752 mmHg 89%
12:00 -12°C° 0 mm 1 mps 752 mmHg 88%
13:00 -14°C° 0 mm 2 mps 752 mmHg 86%
14:00 -15°C° 0 mm 3 mps 751 mmHg 85%
15:00 -16°C° 0 mm 3 mps 752 mmHg 86%
16:00 -17°C° 0 mm 3 mps 752 mmHg 87%
17:00 -18°C° 0 mm 3 mps 752 mmHg 88%
18:00 -18°C° 0 mm 3 mps 753 mmHg 89%
19:00 -18°C° 0 mm 2 mps 753 mmHg 89%
20:00 -18°C° 0 mm 2 mps 754 mmHg 89%
21:00 -19°C° 0 mm 2 mps 754 mmHg 88%
22:00 -19°C° 0 mm 2 mps 755 mmHg 88%
23:00 -20°C° 0 mm 2 mps 755 mmHg 88%

Tomorrow, 17 January, Sunday

Time Temperature Precipitation Wind Pressure Humidity
00:00 -20°C° 0 mm 2 mps 755 mmHg 87%
01:00 -18°C° 0 mm 1 mps 756 mmHg 87%
02:00 -18°C° 0 mm 1 mps 756 mmHg 86%
03:00 -18°C° 0 mm 1 mps 756 mmHg 86%
04:00 -17°C° 0 mm 1 mps 756 mmHg 87%
05:00 -17°C° 0 mm 1 mps 756 mmHg 87%
06:00 -17°C° 0 mm 1 mps 756 mmHg 88%
07:00 -17°C° 0 mm 1 mps 756 mmHg 90%
08:00 -18°C° 0 mm 1 mps 756 mmHg 91%
09:00 -17°C° 0 mm 1 mps 757 mmHg 90%
10:00 -16°C° 0 mm 1 mps 757 mmHg 89%
11:00 -15°C° 0 mm 1 mps 757 mmHg 88%
12:00 -17°C° 0 mm 2 mps 757 mmHg 87%
13:00 -16°C° 0 mm 2 mps 757 mmHg 86%
14:00 -16°C° 0 mm 2 mps 757 mmHg 85%
15:00 -16°C° 0 mm 2 mps 757 mmHg 88%
16:00 -17°C° 0 mm 2 mps 757 mmHg 90%
17:00 -18°C° 0 mm 2 mps 757 mmHg 93%
18:00 -18°C° 0 mm 2 mps 758 mmHg 93%
19:00 -16°C° 0 mm 1 mps 758 mmHg 94%
20:00 -17°C° 0 mm 1 mps 758 mmHg 94%
21:00 -17°C° 0 mm 1 mps 758 mmHg 94%
22:00 -17°C° 0 mm 1 mps 758 mmHg 94%
23:00 -17°C° 0 mm 1 mps 758 mmHg 94%

Day after tomorrow, 18 January, Monday

Time Temperature Precipitation Wind Pressure Humidity
00:00 -17°C° 0 mm 1 mps 758 mmHg 93%
01:00 -18°C° 0 mm 1 mps 758 mmHg 93%
02:00 -18°C° 0 mm 1 mps 758 mmHg 93%
03:00 -18°C° 0 mm 1 mps 758 mmHg 92%
04:00 -18°C° 0 mm 1 mps 758 mmHg 91%
05:00 -18°C° 0 mm 1 mps 758 mmHg 91%
06:00 -18°C° 0 mm 1 mps 758 mmHg 89%
07:00 -17°C° 0 mm 1 mps 758 mmHg 88%
08:00 -17°C° 0 mm 1 mps 758 mmHg 87%
09:00 -16°C° 0 mm 1 mps 758 mmHg 84%
10:00 -15°C° 0 mm 1 mps 758 mmHg 82%
11:00 -15°C° 0 mm 1 mps 758 mmHg 79%
12:00 -14°C° 0 mm 1 mps 758 mmHg 78%
13:00 -13°C° 0 mm 1 mps 758 mmHg 77%
14:00 -12°C° 0 mm 1 mps 757 mmHg 76%
15:00 -12°C° 0 mm 1 mps 757 mmHg 79%
16:00 -13°C° 0 mm 1 mps 757 mmHg 82%
17:00 -16°C° 0 mm 2 mps 757 mmHg 85%
18:00 -16°C° 0 mm 2 mps 757 mmHg 86%
19:00 -16°C° 0 mm 2 mps 757 mmHg 87%
20:00 -16°C° 0 mm 2 mps 757 mmHg 88%
21:00 -16°C° 0 mm 2 mps 757 mmHg 88%
22:00 -16°C° 0 mm 2 mps 757 mmHg 88%
23:00 -16°C° 0 mm 2 mps 757 mmHg 88%

19 January, Tuesday

Time Temperature Precipitation Wind Pressure Humidity
00:00 -16°C° 0 mm 2 mps 757 mmHg 88%
01:00 -16°C° 0 mm 2 mps 757 mmHg 89%
02:00 -16°C° 0 mm 2 mps 757 mmHg 89%
03:00 -17°C° 0 mm 3 mps 756 mmHg 89%
04:00 -17°C° 0 mm 3 mps 756 mmHg 89%
05:00 -17°C° 0 mm 3 mps 755 mmHg 89%
06:00 -17°C° 0 mm 3 mps 755 mmHg 88%
07:00 -17°C° 0 mm 3 mps 755 mmHg 88%
08:00 -18°C° 0 mm 4 mps 755 mmHg 88%
09:00 -17°C° 0 mm 4 mps 755 mmHg 86%
10:00 -17°C° 0 mm 4 mps 754 mmHg 85%
11:00 -16°C° 0 mm 4 mps 754 mmHg 84%
12:00 -15°C° 0 mm 4 mps 754 mmHg 84%
13:00 -14°C° 0 mm 4 mps 753 mmHg 84%
14:00 -12°C° 0 mm 4 mps 753 mmHg 84%
15:00 -12°C° 0.1 mm 4 mps 753 mmHg 87%
16:00 -12°C° 0.1 mm 4 mps 752 mmHg 90%
17:00 -12°C° 0.1 mm 4 mps 752 mmHg 92%
18:00 -12°C° 0.1 mm 4 mps 752 mmHg 92%
19:00 -12°C° 0.1 mm 4 mps 752 mmHg 92%
20:00 -12°C° 0.1 mm 4 mps 752 mmHg 92%
21:00 -12°C° 0 mm 4 mps 752 mmHg 93%
22:00 -12°C° 0 mm 4 mps 752 mmHg 93%
23:00 -12°C° 0 mm 4 mps 751 mmHg 93%

20 January, Wednesday

Time Temperature Precipitation Wind Pressure Humidity
00:00 -11°C° 0 mm 4 mps 751 mmHg 93%
01:00 -11°C° 0 mm 4 mps 751 mmHg 93%
02:00 -11°C° 0 mm 5 mps 751 mmHg 93%
03:00 -11°C° 0 mm 5 mps 750 mmHg 93%
04:00 -11°C° 0 mm 5 mps 750 mmHg 93%
05:00 -10°C° 0 mm 5 mps 750 mmHg 93%
06:00 -10°C° 0 mm 5 mps 749 mmHg 93%
07:00 -10°C° 0 mm 6 mps 749 mmHg 93%
08:00 -10°C° 0 mm 6 mps 749 mmHg 92%
09:00 -9°C° 0 mm 6 mps 749 mmHg 92%
10:00 -8°C° 0 mm 7 mps 748 mmHg 91%
11:00 -8°C° 0 mm 7 mps 748 mmHg 91%
12:00 -7°C° 0.2 mm 7 mps 748 mmHg 92%
13:00 -6°C° 0.2 mm 7 mps 747 mmHg 92%
14:00 -6°C° 0.2 mm 7 mps 747 mmHg 93%
15:00 -4°C° 0.2 mm 6 mps 747 mmHg 94%
16:00 -3°C° 0.2 mm 6 mps 747 mmHg 95%
17:00 -2°C° 0.2 mm 6 mps 747 mmHg 95%
18:00 -2°C° 0.5 mm 6 mps 746 mmHg 96%
19:00 -1°C° 0.5 mm 5 mps 746 mmHg 96%
20:00 0°C° 0.5 mm 5 mps 746 mmHg 96%
21:00 0°C° 0.8 mm 5 mps 746 mmHg 96%
22:00 0°C° 0.8 mm 5 mps 746 mmHg 96%
23:00 -1°C° 0.8 mm 5 mps 746 mmHg 96%

21 January, Thursday

Time Temperature Precipitation Wind Pressure Humidity
00:00 -1°C° 0.4 mm 5 mps 746 mmHg 96%
01:00 -1°C° 0.4 mm 5 mps 746 mmHg 96%
02:00 -1°C° 0.4 mm 4 mps 746 mmHg 95%
03:00 -1°C° 0.4 mm 5 mps 746 mmHg 95%
04:00 -1°C° 0.4 mm 5 mps 746 mmHg 94%
05:00 -1°C° 0.4 mm 5 mps 746 mmHg 93%
06:00 -1°C° 0 mm 5 mps 746 mmHg 91%
07:00 -1°C° 0 mm 5 mps 746 mmHg 90%
08:00 -2°C° 0 mm 5 mps 746 mmHg 88%
09:00 -1°C° 0 mm 5 mps 746 mmHg 87%
10:00 -1°C° 0 mm 5 mps 746 mmHg 86%
11:00 -1°C° 0 mm 5 mps 746 mmHg 85%
12:00 -1°C° 0 mm 5 mps 746 mmHg 87%
13:00 0°C° 0 mm 4 mps 746 mmHg 89%
14:00 0°C° 0 mm 4 mps 746 mmHg 91%
15:00 -1°C° 0 mm 4 mps 746 mmHg 92%
16:00 -1°C° 0 mm 4 mps 745 mmHg 93%
17:00 -1°C° 0 mm 4 mps 745 mmHg 93%
18:00 -1°C° 0 mm 4 mps 744 mmHg 94%
19:00 -1°C° 0 mm 4 mps 744 mmHg 94%
20:00 0°C° 0 mm 4 mps 743 mmHg 95%
21:00 0°C° 0 mm 4 mps 743 mmHg 94%
22:00 0°C° 0 mm 4 mps 743 mmHg 93%
23:00 0°C° 0 mm 4 mps 742 mmHg 93%
Show more